BADR-7 (ARABSAT-6B)

Last updated on Thu Sep 10 2026 00:02:58 GMT+0000 (Coordinated Universal Time)

1 41029U 15065B 26252.51942208 .00000124 00000+0 00000+0 0 9996 2 41029 0.0492 240.3029 0006768 338.9553 342.3305 1.00275397 39619
UTC large
Height (km)
Speed (km/s)
/
Latitude / Longitude
Inclination (degrees)
Orbital Period (minutes)
Azimuth
Elevation
Range (km)
Doppler Factor

Next 0 passes for location: London (51.5072 / 0.1276)

No passes found over London.
BADR-7 (ARABSAT-6B)